FW7622 Weather Reports


Display with metric or nautical units.
time (UTC)temp
F
wind
direction
speed
MPH
gust
MPH
rain 1hr
in
rain 24hr
in
rain mn
in
humidity
%
barometer
mb
20260507042818 37 154 0.0 0.0 0.00 0.00 0.00 76 1013.5
20260507042314 37 157 0.0 1.0 0.00 0.00 0.00 76 1013.5
20260507041811 37 160 0.0 0.0 0.00 0.00 0.00 76 1013.2
20260507041308 37 160 0.0 0.0 0.00 0.00 0.00 76 1013.5
20260507040805 37 161 0.0 0.0 0.00 0.00 0.00 76 1013.5
20260507040301 37 160 0.0 0.0 0.00 0.00 0.00 75 1013.9
20260507035757 37 159 0.0 1.0 0.00 0.00 0.00 75 1013.5
20260507035252 37 161 0.0 0.0 0.00 0.00 0.00 74 1013.5
20260507034750 37 161 0.0 0.0 0.00 0.00 0.00 75 1013.5
20260507034247 37 161 0.0 0.0 0.00 0.00 0.00 74 1013.9
20260507033746 37 161 0.0 0.0 0.00 0.00 0.00 73 1013.9
20260507033242 38 161 0.0 0.0 0.00 0.00 0.00 74 1013.9
20260507032740 38 160 0.0 0.0 0.00 0.00 0.00 73 1013.9
20260507032236 38 153 0.0 1.0 0.00 0.00 0.00 73 1013.9
20260507031732 38 154 0.0 0.0 0.00 0.00 0.00 72 1013.9
20260507031229 38 160 0.0 0.0 0.00 0.00 0.00 72 1013.9
20260507030726 38 160 0.0 0.0 0.00 0.00 0.00 72 1014.2
20260507030223 38 161 0.0 0.0 0.00 0.00 0.00 71 1013.9
20260507025720 39 155 0.0 0.0 0.00 0.00 0.00 71 1013.9
20260507025217 39 168 0.0 0.0 0.00 0.00 0.00 71 1013.9
20260507024716 39 177 0.0 0.0 0.00 0.00 0.00 71 1013.9
20260507024213 39 177 0.0 0.0 0.00 0.00 0.00 71 1014.2
20260507023708 39 177 0.0 0.0 0.00 0.00 0.00 70 1014.2
20260507023205 39 177 0.0 0.0 0.00 0.00 0.00 69 1014.2
20260507022702 39 177 0.0 0.0 0.00 0.00 0.00 69 1014.2
20260507022158 40 177 0.0 0.0 0.00 0.00 0.00 68 1014.2
20260507021655 39 177 0.0 0.0 0.00 0.00 0.00 68 1014.2
20260507021149 39 176 0.0 0.0 0.00 0.00 0.00 67 1013.9
20260507020648 39 176 0.0 0.0 0.00 0.00 0.00 68 1014.2
20260507020144 39 175 0.0 0.0 0.00 0.00 0.00 67 1014.2
20260507015643 40 175 0.0 0.0 0.00 0.00 0.00 67 1014.2
20260507015140 40 176 0.0 0.0 0.00 0.00 0.00 66 1013.9
20260507014636 40 176 0.0 0.0 0.00 0.00 0.00 65 1013.9
20260507014132 40 177 0.0 0.0 0.00 0.00 0.00 65 1013.9
20260507013629 40 173 0.0 0.0 0.00 0.00 0.00 64 1014.2
20260507013126 40 178 0.0 0.0 0.00 0.00 0.00 64 1013.9
20260507012624 41 132 1.0 1.0 0.00 0.00 0.00 65 1013.9
20260507012119 41 181 1.0 1.0 0.00 0.00 0.00 63 1013.9
20260507011618 41 176 0.0 0.0 0.00 0.00 0.00 63 1013.9
20260507011113 41 177 0.0 0.0 0.00 0.00 0.00 63 1014.2
20260507010608 41 171 0.0 0.0 0.00 0.00 0.00 64 1013.9
20260507010104 41 180 0.0 0.0 0.00 0.00 0.00 62 1014.2
20260507005602 41 259 2.0 3.0 0.00 0.00 0.00 62 1013.9
20260507005058 41 166 0.0 0.0 0.00 0.00 0.00 62 1013.9
20260507004555 41 172 0.0 0.0 0.00 0.00 0.00 62 1013.9
20260507004053 41 210 1.0 2.0 0.00 0.00 0.00 61 1013.9
20260507003548 42 161 0.0 1.0 0.00 0.00 0.00 60 1013.9
20260507003043 42 350 3.0 3.0 0.00 0.00 0.00 60 1013.9
20260507002540 42 184 2.0 3.0 0.00 0.00 0.00 61 1013.9
20260507002036 42 260 1.0 2.0 0.00 0.00 0.00 61 1013.9
20260507001533 42 247 3.0 3.0 0.00 0.00 0.00 60 1014.2
20260507001031 42 264 1.0 1.0 0.00 0.00 0.00 61 1013.9
20260507000526 42 211 1.0 2.0 0.00 0.00 0.00 60 1013.9
20260507000023 42 175 1.0 2.0 0.00 0.00 0.00 60 1014.2
20260506235520 42 161 1.0 2.0 0.00 0.00 0.00 59 1013.9
20260506235015 42 194 1.0 1.0 0.00 0.00 0.00 60 1014.2
20260506234513 42 131 1.0 2.0 0.00 0.00 0.00 60 1013.9
20260506234010 42 187 2.0 3.0 0.00 0.00 0.00 59 1014.2
20260506233506 42 227 3.0 3.0 0.00 0.00 0.00 59 1014.2
20260506233003 42 276 2.0 2.0 0.00 0.00 0.00 60 1014.2
20260506232459 42 232 2.0 2.0 0.00 0.00 0.00 59 1013.9
20260506231955 42 184 2.0 2.0 0.00 0.00 0.00 60 1014.2
20260506231453 43 244 1.0 2.0 0.00 0.00 0.00 60 1014.2
20260506230950 42 282 2.0 3.0 0.00 0.00 0.00 61 1014.2
20260506230446 42 212 2.0 3.0 0.00 0.00 0.00 59 1014.5
20260506225943 42 344 3.0 5.0 0.00 0.00 0.00 60 1013.9
20260506225441 42 218 2.0 2.0 0.00 0.00 0.00 59 1014.2
20260506224937 42 218 3.0 3.0 0.00 0.00 0.00 59 1014.2
20260506224434 42 221 2.0 3.0 0.00 0.00 0.00 59 1014.5
20260506223931 42 212 2.0 3.0 0.00 0.00 0.00 59 1014.2
20260506223426 43 199 1.0 2.0 0.00 0.00 0.00 61 1014.2
20260506222924 42 180 0.0 1.0 0.00 0.00 0.00 60 1014.5
20260506222420 42 256 1.0 2.0 0.00 0.00 0.00 60 1014.2
20260506221917 42 215 1.0 2.0 0.00 0.00 0.00 61 1014.2
20260506221414 42 214 2.0 2.0 0.00 0.00 0.00 61 1014.5
20260506220912 42 169 2.0 5.0 0.00 0.00 0.00 61 1014.2
20260506220407 43 160 3.0 3.0 0.00 0.00 0.00 60 1014.2
20260506215904 43 291 3.0 5.0 0.00 0.00 0.00 59 1014.5
20260506215400 43 276 4.0 5.0 0.00 0.00 0.00 59 1014.2
20260506214856 43 225 4.0 5.0 0.00 0.00 0.00 61 1014.5
20260506214353 43 201 3.0 5.0 0.00 0.00 0.00 60 1014.2
20260506213851 43 135 1.0 2.0 0.00 0.00 0.00 60 1014.2
20260506213348 43 18 3.0 5.0 0.00 0.00 0.00 61 1014.5
20260506212845 43 268 3.0 3.0 0.00 0.00 0.00 61 1014.2
20260506212341 43 132 1.0 2.0 0.00 0.00 0.00 60 1014.5
20260506211836 43 192 0.0 1.0 0.00 0.00 0.00 62 1014.2
20260506211332 42 195 2.0 3.0 0.00 0.00 0.00 60 1014.5
20260506210830 43 212 1.0 3.0 0.00 0.00 0.00 59 1014.2
20260506210327 43 302 2.0 2.0 0.00 0.00 0.00 60 1014.2
20260506205824 42 186 2.0 2.0 0.00 0.00 0.00 60 1014.5
20260506205320 42 245 3.0 6.0 0.00 0.00 0.00 60 1014.5
20260506204817 43 150 1.0 2.0 0.00 0.00 0.00 61 1014.2
20260506204314 43 200 1.0 2.0 0.00 0.00 0.00 62 1014.2
20260506203812 43 185 2.0 2.0 0.00 0.00 0.00 61 1014.5
20260506203309 42 121 3.0 3.0 0.00 0.00 0.00 61 1014.5
20260506202806 43 258 4.0 7.0 0.00 0.00 0.00 61 1014.5
20260506202306 43 224 1.0 2.0 0.00 0.00 0.00 63 1014.5
20260506201759 42 205 2.0 2.0 0.00 0.00 0.00 62 1014.5
20260506201256 42 160 3.0 5.0 0.00 0.00 0.00 63 1014.5
20260506200753 42 187 1.0 1.0 0.00 0.00 0.00 62 1014.2
20260506200249 42 124 1.0 2.0 0.00 0.00 0.00 63 1014.5
20260506195746 42 61 5.0 7.0 0.00 0.00 0.00 63 1014.5
20260506195242 42 219 3.0 5.0 0.00 0.00 0.00 64 1014.2
20260506194739 42 179 1.0 3.0 0.00 0.00 0.00 64 1014.5
20260506194236 42 155 0.0 1.0 0.00 0.00 0.00 64 1014.5
20260506193734 42 242 2.0 3.0 0.00 0.00 0.00 64 1014.5
20260506193230 42 206 1.0 2.0 0.00 0.00 0.00 63 1014.5
20260506192727 43 258 4.0 5.0 0.00 0.00 0.00 64 1014.2
20260506192224 42 351 2.0 2.0 0.00 0.00 0.00 64 1015.0
20260506191720 42 179 1.0 2.0 0.00 0.00 0.00 63 1014.5
20260506191216 42 318 3.0 3.0 0.00 0.00 0.00 64 1014.5
20260506190714 42 227 2.0 2.0 0.00 0.00 0.00 63 1014.5
20260506190210 42 198 2.0 3.0 0.00 0.00 0.00 62 1014.5
20260506185708 42 123 0.0 1.0 0.00 0.00 0.00 64 1014.5
20260506185204 42 206 2.0 2.0 0.00 0.00 0.00 63 1014.5
20260506184702 42 158 0.0 1.0 0.00 0.00 0.00 64 1014.5
20260506184159 42 272 2.0 2.0 0.00 0.00 0.00 63 1014.5
20260506183655 42 198 3.0 3.0 0.00 0.00 0.00 62 1014.5
20260506183151 43 213 1.0 2.0 0.00 0.00 0.00 62 1014.2
20260506182649 43 170 1.0 1.0 0.00 0.00 0.00 62 1014.5
20260506182146 43 184 1.0 2.0 0.00 0.00 0.00 61 1014.2
20260506181644 42 252 3.0 5.0 0.00 0.00 0.00 61 1014.2
20260506181140 42 205 2.0 3.0 0.00 0.00 0.00 61 1014.5
20260506180637 42 206 2.0 3.0 0.00 0.00 0.00 62 1014.5
20260506180134 42 194 1.0 1.0 0.00 0.00 0.00 61 1014.5
20260506175630 42 206 1.0 1.0 0.00 0.00 0.00 63 1014.5
20260506175126 42 214 2.0 2.0 0.00 0.00 0.00 62 1015.0
20260506174625 42 223 0.0 1.0 0.00 0.00 0.00 61 1014.5
20260506174121 42 202 2.0 5.0 0.00 0.00 0.00 61 1014.5
20260506173619 42 156 2.0 2.0 0.00 0.00 0.00 60 1014.5
20260506173116 42 152 0.0 1.0 0.00 0.00 0.00 62 1014.5
20260506172613 42 28 2.0 5.0 0.00 0.00 0.00 61 1015.0
20260506172109 42 342 5.0 6.0 0.00 0.00 0.00 61 1014.5
20260506171607 42 140 0.0 1.0 0.00 0.00 0.00 62 1015.0
20260506171104 41 140 2.0 3.0 0.00 0.00 0.00 61 1015.0
20260506170556 42 114 2.0 3.0 0.00 0.00 0.00 60 1014.5
20260506170053 42 344 3.0 5.0 0.00 0.00 0.00 60 1015.0
20260506165552 43 9 1.0 2.0 0.00 0.00 0.00 61 1014.5
20260506165047 42 244 2.0 3.0 0.00 0.00 0.00 62 1014.5
20260506164545 42 166 1.0 2.0 0.00 0.00 0.00 60 1014.5
20260506164042 42 96 1.0 2.0 0.00 0.00 0.00 62 1015.0
20260506163537 42 148 0.0 1.0 0.00 0.00 0.00 65 1014.5
20260506163033 42 223 1.0 2.0 0.00 0.00 0.00 63 1015.0
20260506162530 42 172 0.0 1.0 0.00 0.00 0.00 62 1014.5
20260506162027 41 279 4.0 7.0 0.00 0.00 0.00 61 1015.0
20260506161525 41 322 2.0 3.0 0.00 0.00 0.00 61 1015.0
20260506161021 42 155 0.0 0.0 0.00 0.00 0.00 62 1015.0
20260506160519 41 166 1.0 1.0 0.00 0.00 0.00 61 1015.0
20260506160017 42 125 1.0 1.0 0.00 0.00 0.00 61 1015.0
20260506155515 41 174 2.0 2.0 0.00 0.00 0.00 61 1015.0
20260506153652 41 281 4.0 6.0 0.00 0.00 0.00 61 1015.0
20260506153149 41 247 4.0 5.0 0.00 0.00 0.00 62 1014.5
20260506152646 40 150 2.0 3.0 0.00 0.00 0.00 62 1014.5
20260506152143 40 310 3.0 5.0 0.00 0.00 0.00 61 1014.5
20260506151642 40 230 1.0 2.0 0.00 0.00 0.00 61 1014.5
20260506151138 40 325 5.0 6.0 0.00 0.00 0.00 61 1015.0
20260506150635 40 152 3.0 3.0 0.00 0.00 0.00 62 1015.0
20260506150132 40 274 2.0 3.0 0.00 0.00 0.00 63 1015.0
20260506145629 40 292 4.0 6.0 0.00 0.00 0.00 63 1015.0
20260506145126 40 344 2.0 3.0 0.00 0.00 0.00 62 1014.5
20260506144623 40 221 2.0 2.0 0.00 0.00 0.00 62 1015.0
20260506144120 40 189 1.0 1.0 0.00 0.00 0.00 63 1014.5
20260506143618 40 77 0.0 1.0 0.00 0.00 0.00 62 1014.5
20260506143115 40 148 1.0 1.0 0.00 0.00 0.00 61 1014.2
20260506142614 39 17 3.0 3.0 0.00 0.00 0.00 63 1014.5
20260506142112 39 165 1.0 2.0 0.00 0.00 0.00 64 1014.2
20260506141608 40 339 2.0 3.0 0.00 0.00 0.00 63 1014.5
20260506141107 39 246 3.0 3.0 0.00 0.00 0.00 62 1014.5
20260506140604 39 192 2.0 2.0 0.00 0.00 0.00 65 1014.5
20260506135558 39 184 1.0 2.0 0.00 0.00 0.00 64 1014.2
20260506135054 39 85 3.0 3.0 0.00 0.00 0.00 64 1014.2
20260506134551 39 198 2.0 2.0 0.00 0.00 0.00 66 1013.9
20260506134047 39 289 2.0 2.0 0.00 0.00 0.00 67 1014.2
20260506133544 39 14 3.0 6.0 0.00 0.00 0.00 68 1014.2
20260506133041 38 217 3.0 3.0 0.00 0.00 0.00 68 1014.2
20260506132538 38 254 2.0 3.0 0.00 0.00 0.00 71 1013.9
20260506132035 38 142 1.0 1.0 0.00 0.00 0.00 73 1014.2
20260506131532 37 142 0.0 1.0 0.00 0.00 0.00 74 1014.2
20260506131029 37 197 0.0 1.0 0.00 0.00 0.00 76 1014.2
20260506130526 37 169 0.0 0.0 0.00 0.00 0.00 76 1014.2
20260506130023 37 172 0.0 0.0 0.00 0.00 0.00 77 1014.2
20260506125521 36 170 0.0 0.0 0.00 0.00 0.00 79 1013.9
20260506125019 36 174 0.0 0.0 0.00 0.00 0.00 79 1013.9
20260506124517 35 170 0.0 0.0 0.00 0.00 0.00 80 1013.9
20260506124014 35 174 0.0 0.0 0.00 0.00 0.00 80 1013.9
20260506123512 35 171 0.0 0.0 0.00 0.00 0.00 83 1013.9
20260506123010 34 171 0.0 0.0 0.00 0.00 0.00 84 1013.9
20260506122506 34 171 0.0 0.0 0.00 0.00 0.00 84 1013.9
20260506122005 33 171 0.0 0.0 0.00 0.00 0.00 84 1013.9
20260506121501 33 170 0.0 0.0 0.00 0.00 0.00 84 1013.9
20260506120958 33 171 0.0 0.0 0.00 0.00 0.00 84 1013.5
20260506120456 32 167 0.0 0.0 0.00 0.00 0.00 85 1013.5
20260506115953 32 169 0.0 0.0 0.00 0.00 0.00 85 1013.2
20260506115451 32 168 0.0 0.0 0.00 0.00 0.00 86 1013.5
20260506114949 31 168 0.0 0.0 0.00 0.00 0.00 86 1013.5
20260506114446 31 169 0.0 0.0 0.00 0.00 0.00 85 1013.5
20260506113944 31 168 0.0 0.0 0.00 0.00 0.00 85 1013.5
20260506113442 30 169 0.0 0.0 0.00 0.00 0.00 85 1013.9
20260506112938 30 169 0.0 0.0 0.00 0.00 0.00 85 1013.5
20260506112436 30 167 0.0 0.0 0.00 0.00 0.00 85 1013.5
20260506111933 30 172 0.0 0.0 0.00 0.00 0.00 85 1013.2
20260506111431 30 172 0.0 0.0 0.00 0.00 0.00 85 1013.2
20260506110928 30 166 0.0 0.0 0.00 0.00 0.00 84 1013.2
20260506110426 29 166 0.0 0.0 0.00 0.00 0.00 84 1013.2
20260506105922 29 166 0.0 0.0 0.00 0.00 0.00 84 1013.2
20260506105418 29 167 0.0 0.0 0.00 0.00 0.00 84 1012.9
20260506104916 29 166 0.0 0.0 0.00 0.00 0.00 84 1012.5
20260506104414 28 167 0.0 0.0 0.00 0.00 0.00 84 1012.5
20260506103911 28 167 0.0 0.0 0.00 0.00 0.00 84 1012.5
20260506103409 28 165 0.0 0.0 0.00 0.00 0.00 84 1012.5
20260506102905 28 162 0.0 0.0 0.00 0.00 0.00 85 1012.5
20260506102404 28 159 0.0 0.0 0.00 0.00 0.00 85 1012.9
20260506101900 28 165 0.0 0.0 0.00 0.00 0.00 86 1012.5
20260506101356 28 164 0.0 0.0 0.00 0.00 0.00 87 1012.5
20260506100854 28 165 0.0 0.0 0.00 0.00 0.00 87 1012.9
20260506100352 27 151 1.0 1.0 0.00 0.00 0.00 88 1012.9
20260506095850 27 169 0.0 0.0 0.00 0.00 0.00 88 1012.9
20260506095348 26 167 0.0 0.0 0.00 0.00 0.00 88 1012.9
20260506094844 26 168 0.0 0.0 0.00 0.00 0.00 89 1012.9
20260506094343 26 172 0.0 0.0 0.00 0.00 0.00 88 1012.9
20260506093841 26 168 0.0 0.0 0.00 0.00 0.00 88 1012.9
20260506093338 26 202 1.0 1.0 0.00 0.00 0.00 88 1013.2
20260506092835 25 163 0.0 0.0 0.00 0.00 0.00 87 1012.9
20260506092333 26 163 0.0 0.0 0.00 0.00 0.00 86 1012.5
20260506091830 26 163 0.0 0.0 0.00 0.00 0.00 86 1012.5
20260506091328 26 162 0.0 0.0 0.00 0.00 0.00 85 1012.2
20260506090825 26 164 0.0 0.0 0.00 0.00 0.00 85 1012.5
20260506090322 27 153 0.0 1.0 0.00 0.00 0.00 85 1012.5
20260506085819 27 165 0.0 0.0 0.00 0.00 0.00 84 1012.5
20260506085315 27 165 0.0 0.0 0.00 0.00 0.00 84 1012.9
20260506084812 28 178 0.0 0.0 0.00 0.00 0.00 83 1012.9
20260506084308 28 179 0.0 0.0 0.00 0.00 0.00 82 1012.9
20260506083805 29 179 0.0 0.0 0.00 0.00 0.00 81 1012.5
20260506083303 29 178 0.0 0.0 0.00 0.00 0.00 80 1012.5
20260506082800 30 178 0.0 0.0 0.00 0.00 0.00 79 1012.2
20260506082255 30 178 0.0 0.0 0.00 0.00 0.00 78 1012.2
20260506081753 31 178 0.0 0.0 0.00 0.00 0.00 77 1012.5
20260506081251 31 178 0.0 0.0 0.00 0.00 0.00 76 1012.5
20260506080748 32 178 0.0 0.0 0.00 0.00 0.00 75 1012.2
20260506080244 32 176 0.0 0.0 0.00 0.00 0.00 75 1012.2
20260506073228 33 169 1.0 1.0 0.00 0.00 0.00 73 1012.2
20260506072725 33 157 0.0 0.0 0.00 0.00 0.00 73 1012.2
20260506072223 33 206 0.0 1.0 0.00 0.00 0.00 72 1012.2
20260506071720 34 164 0.0 0.0 0.00 0.00 0.00 72 1012.2
20260506071218 34 166 0.0 0.0 0.00 0.00 0.00 71 1012.2
20260506070715 34 193 2.0 2.0 0.00 0.00 0.00 71 1012.2
20260506070212 34 145 1.0 1.0 0.00 0.00 0.00 70 1012.2
20260506062149 36 19 3.0 5.0 0.00 0.00 0.00 70 1012.2
20260506061645 36 151 1.0 1.0 0.00 0.00 0.00 69 1012.2
20260506061142 36 162 0.0 0.0 0.00 0.00 0.00 70 1012.2
20260506060641 36 188 0.0 1.0 0.00 0.00 0.00 70 1012.2
20260506060137 37 181 0.0 0.0 0.00 0.00 0.00 70 1012.2
20260506051109 38 19 3.0 6.0 0.00 0.00 0.00 68 1011.5
20260506050608 38 167 1.0 2.0 0.00 0.00 0.00 69 1011.5
20260506050105 38 181 1.0 2.0 0.00 0.00 0.00 69 1011.5
20260506045058 38 161 0.0 0.0 0.00 0.00 0.00 69 1011.1
20260506044556 38 180 0.0 1.0 0.00 0.00 0.00 69 1011.1
20260506044052 37 174 0.0 0.0 0.00 0.00 0.00 69 1011.1
20260506043549 37 168 0.0 0.0 0.00 0.00 0.00 69 1011.1